Location: Sternwarte ZA, Rosenfeld-Brittheim
(48.2889°N, 8.6789°E)
Time: 04:33:08
(UTC+01:00)

ISS - Pass Details

Date: 13 January 2018
Orbit: 402 x 407 km, 51.6° (Epoch: 24 January)

Event Time Altitude Azimuth Distance (km) Brightness Sun altitude
Exits shadow 05:33:30 27° 112° (ESE) 828 -1.7 -25.8°
Drops below altitude 10° 05:35:07 10° 113° (ESE) 1,465 -0.1 -25.5°
Sets 05:37:11 0° 113° (ESE) 2,324 1.2 -25.2°
